RH
66 85 68 56 50 57 55 62 73 44 45 49 60 42 36 38 42 46 52 57 52 47 48 40 42 37 42 54 58 56 59 65 67 65 71 71 62 62 74 76 75 69 76 80
63 77 46 50 54 63 59 65 71 48 45 55 52 44 34 33 42 45 46 48 49 47 38 40 55 51 52 58 62 56 63 64 67 72 69 63 67 70 65 73 80 74 75 76
66 58 34 53 53 56 55 54 50 51 37 39 40 48 38 32 37 41 40 43 38 40 42 42 41 52 53 55 51 56 62 67 68 65 70 73 69 71 72 76 73 83 70 74
73 46 39 49 54 56 83 33 36 37 53 71 45 80 60 37 34 39 36 35 36 37 39 38 40 37 40 46 47 54 66 68 67 70 71 69 70 74 72 74 79 80 80 77
54 51 49 52 45 45 57 30 34 32 71 63 55 70 51 47 40 38 34 34 34 33 32 39 36 34 39 40 46 49 64 70 65 70 70 77 76 75 65 81 72 79 80 76
23 33 37 35 24 27 35 38 47 47 64 79 60 68 69 53 39 34 32 31 31 31 30 31 28 28 29 37 40 49 57 62 68 73 73 79 71 72 76 82 81 81 82 80
23 21 23 19 27 31 32 58 87 70 81 82 68 74 54 37 31 29 29 29 29 28 29 30 29 28 34 37 37 48 55 71 72 77 78 82 77 79 72 76 76 68 80 83
35 36 19 17 30 41 56 67 74 85 88 88 72 77 44 27 25 26 24 27 26 27 27 27 27 28 29 32 40 43 61 74 74 75 81 81 83 85 84 77 71 77 77 86
36 34 19 15 21 32 50 51 58 90 88 92 85 69 44 26 26 27 25 26 30 29 24 25 28 26 38 30 46 46 59 68 73 73 82 85 85 87 81 72 77 77 73 75
15 20 23 15 15 20 32 39 54 66 95 94 88 82 80 51 42 28 25 27 28 29 27 28 26 30 31 31 39 47 57 61 64 66 76 82 85 86 83 85 85 69 76 74
33 12 13 20 21 23 41 39 34 52 58 84 92 78 75 46 45 48 31 25 27 26 29 25 23 26 25 27 30 46 52 60 64 61 68 74 82 84 84 82 80 76 75 76
24 13 17 13 15 11 24 34 36 44 78 67 69 67 37 43 40 38 35 33 28 24 25 23 27 37 43 40 34 54 76 76 73 66 71 74 79 80 82 82 76 77 78 77
27 22 24 20 15 22 28 31 38 31 51 61 53 48 41 43 37 37 43 40 39 43 36 41 51 53 34 46 53 53 65 77 32 70 65 70 76 77 75 74 72 77 82 89
23 15 16 22 19 15 15 26 24 25 40 49 41 32 45 38 33 36 43 42 47 54 60 61 48 37 36 45 59 54 62 73 61 65 66 70 74 70 66 65 68 77 93 97
15 21 18 15 13 12 13 14 16 23 24 27 40 39 41 40 27 31 36 42 45 52 58 55 43 48 42 48 64 59 65 74 79 77 66 66 70 68 80 89 94 96 95 95
24 27 34 26 15 12 12 13 20 22 18 23 20 25 32 32 26 39 38 45 51 49 51 50 55 58 57 62 71 66 65 68 70 76 84 90 87 84 97 96 96 95 95 95
27 28 38 43 26 23 24 15 19 21 19 20 24 18 32 41 40 37 42 46 49 48 50 54 51 53 51 61 69 73 86 75 86 86 92 89 93 97 97 96 95 96 96 96
23 26 28 32 34 40 22 15 12 16 16 17 13 23 25 27 30 32 35 42 48 46 48 52 55 54 55 62 80 74 68 86 92 91 94 93 97 97 97 97 96 96 96 95
16 21 33 32 32 28 21 16 18 24 26 25 27 26 20 22 29 34 31 36 46 45 46 46 43 48 63 66 72 73 80 89 90 90 92 96 96 96 96 94 95 93 91 95
20 18 22 28 36 36 27 17 18 22 27 21 21 23 23 24 38 40 31 34 38 39 42 42 50 56 59 67 73 82 94 94 95 95 95 94 94 89 90 87 93 94 95 95
29 43 41 48 53 35 21 16 21 33 29 20 23 26 32 29 40 29 30 32 34 34 38 44 45 54 58 65 71 87 94 96 95 94 92 92 93 90 88 94 94 94 95 95
35 39 35 52 53 49 27 24 30 31 28 24 24 26 28 45 32 30 29 31 32 36 43 42 50 54 58 66 73 87 95 95 92 88 85 92 92 78 88 94 94 93 95 95
51 49 54 47 46 45 47 39 42 38 32 31 40 38 50 51 59 43 30 31 36 39 39 42 46 56 67 67 76 91 95 87 91 88 88 90 91 93 95 95 96 97 95 97
33 32 42 42 46 48 46 34 40 47 44 41 42 50 62 68 71 81 32 35 38 38 41 43 53 60 82 78 79 83 84 87 90 93 94 89 92 96 94 96 96 96 90 90
29 28 38 35 48 30 26 22 21 30 46 38 36 38 64 61 63 74 56 37 37 39 43 48 59 76 79 78 78 80 83 82 88 93 90 91 92 94 92 92 86 74 75 82
23 27 29 29 23 31 25 21 20 24 46 40 38 56 66 64 77 90 85 44 37 47 52 61 70 76 81 80 81 85 84 82 90 89 86 87 87 90 86 84 94 100 98 100
Wind_Speed
4 6 7 9 8 10 8 3 13 12 12 8 9 6 11 15 16 12 12 11 11 13 10 11 10 11 6 5 2 7 8 7 5 2 3 2 1 2 1 4 7 6 4 6
7 4 1 10 10 7 11 15 18 10 15 5 10 11 11 11 19 16 14 14 14 12 12 10 10 10 9 8 8 7 9 7 4 3 3 2 2 2 3 6 5 4 5 6
1 11 8 14 15 16 17 12 13 6 8 16 11 6 7 8 17 16 16 15 15 14 12 10 11 16 15 12 12 8 8 8 6 6 2 1 3 1 3 2 2 2 6 6
12 7 13 17 14 5 14 6 14 6 3 2 5 1 5 6 7 18 17 16 14 13 16 15 10 9 18 15 12 10 10 9 8 8 4 4 4 4 3 5 3 3 4 6
17 15 16 22 17 19 13 18 8 1 4 3 1 5 8 6 7 8 11 17 17 16 16 18 16 11 19 16 14 12 11 9 9 8 6 5 4 3 1 2 6 5 5 6
10 8 18 19 9 11 7 11 8 4 3 6 7 5 8 6 12 10 8 20 19 16 15 18 17 15 13 16 15 13 13 11 9 8 7 7 7 5 1 3 3 4 4 4
9 6 6 11 7 5 2 9 6 8 9 4 13 7 15 10 15 15 15 12 21 18 19 18 18 14 12 18 16 14 14 9 9 9 8 8 8 7 6 4 4 3 1 3
3 9 7 2 4 6 4 7 10 6 3 5 9 7 13 9 16 17 16 14 14 16 18 17 16 15 12 16 10 15 12 8 8 8 8 7 7 4 4 4 4 2 1 3
5 7 3 5 14 9 1 6 5 11 1 5 3 14 13 9 15 14 16 14 13 10 11 13 11 16 8 15 12 16 12 9 9 9 6 7 6 5 4 6 4 2 2 4
4 3 5 6 3 4 11 13 5 4 7 2 10 10 7 13 11 10 15 14 14 11 9 12 11 11 10 14 14 15 14 14 12 9 8 6 7 6 6 4 4 5 2 4
3 3 12 4 6 10 5 5 7 7 4 7 7 12 10 7 8 4 9 14 15 13 10 14 14 13 15 13 15 17 11 5 3 8 10 8 7 7 7 5 5 5 2 3
3 3 5 8 10 7 7 8 7 7 5 2 5 8 6 4 3 12 5 6 7 14 11 18 13 9 8 3 9 12 6 7 1 3 7 9 7 7 7 6 7 5 4 3
4 4 6 13 10 4 1 4 5 9 6 5 6 8 4 7 4 7 5 8 6 4 5 12 11 9 10 9 14 14 14 9 7 5 8 8 9 8 7 7 7 7 6 7
8 3 6 6 9 5 4 5 8 10 6 9 4 16 7 7 6 5 6 7 6 8 7 7 8 13 10 10 9 16 15 22 17 3 9 7 7 8 8 7 8 6 7 7
3 4 6 11 10 9 10 5 7 5 8 8 18 21 15 12 10 10 8 6 7 9 10 7 10 7 7 6 9 11 11 10 7 11 9 8 8 7 6 7 9 10 11 7
11 6 3 8 11 11 13 6 4 2 3 2 5 9 14 11 4 6 7 11 8 9 12 12 8 6 7 8 8 6 9 11 8 7 5 6 9 9 7 10 10 9 8 7
14 10 4 6 14 9 7 6 8 4 4 2 3 8 16 8 8 12 14 12 12 10 9 11 12 11 8 8 10 8 6 5 7 6 7 7 8 9 9 9 9 8 7 7
14 13 8 8 7 5 10 12 5 9 9 7 8 11 23 20 19 18 16 15 13 13 11 9 8 7 8 7 10 10 9 1 6 6 6 7 9 8 7 7 8 7 7 7
13 9 5 6 9 9 10 10 4 4 4 5 4 1 1 12 18 14 17 14 11 15 13 11 9 9 8 13 11 11 8 6 7 5 5 7 10 9 7 8 8 8 8 5
8 10 9 9 11 15 11 8 6 5 6 5 4 4 5 5 12 10 19 17 14 15 12 13 11 14 15 11 13 12 8 8 7 7 7 8 8 9 9 10 9 5 6 6
8 6 5 4 3 8 7 6 6 7 10 8 4 4 1 2 7 17 20 18 16 15 11 13 13 12 12 14 14 11 8 8 7 7 9 8 7 9 9 7 5 5 6 6
7 6 7 3 1 6 3 8 7 11 11 5 7 5 4 3 12 20 22 20 18 15 17 14 13 11 8 10 14 12 10 8 9 10 10 9 7 7 6 7 5 7 7 6
2 7 6 8 6 16 20 10 15 20 23 8 4 7 11 12 14 19 19 21 19 20 16 14 14 10 8 13 13 13 10 10 8 9 10 8 8 7 6 6 6 5 6 5
9 12 7 15 15 21 11 20 20 20 20 16 10 11 18 20 25 21 9 12 18 18 15 14 13 13 11 13 12 14 12 10 9 8 7 8 8 6 5 4 4 4 4 4
8 14 12 15 10 21 20 27 23 23 17 20 26 18 14 20 21 21 14 19 19 15 14 14 16 13 14 14 13 12 11 11 9 7 7 7 6 6 5 3 1 3 1 3
7 11 10 14 15 7 22 28 26 25 15 16 21 5 5 24 24 17 24 7 16 14 15 15 16 16 14 13 12 10 10 11 9 7 5 5 6 5 4 4 4 10 4 5
Wind_Direction
12 341 23 329 299 344 300 345 284 252 265 332 25 203 163 148 144 141 150 157 159 178 211 176 152 171 198 146 133 219 135 158 155 169 207 249 268 157 80 136 185 184 169 154
58 256 253 304 310 356 297 269 263 219 257 166 212 224 161 159 159 164 169 163 175 189 199 156 163 179 176 176 205 170 144 159 168 179 222 186 169 89 148 164 185 233 167 164
134 238 13 327 322 310 295 258 257 217 263 209 357 126 155 190 157 169 178 176 177 178 169 191 175 184 179 187 184 161 173 177 191 208 198 151 79 36 128 173 135 218 158 181
252 255 210 224 235 205 324 253 231 33 63 336 336 223 323 193 174 170 179 170 172 174 183 186 203 177 176 174 172 172 180 187 198 202 189 172 169 175 191 169 190 190 213 210
229 179 208 243 245 152 234 94 114 115 91 155 291 101 258 346 202 177 175 176 176 190 174 190 195 184 172 173 176 181 183 189 199 200 185 185 175 190 35 160 177 191 222 206
263 164 193 226 238 92 191 104 115 114 66 39 335 8 279 202 199 176 185 174 177 180 165 177 188 192 175 174 179 182 185 198 191 181 186 186 192 191 209 170 220 214 187 206
296 263 212 214 93 15 41 50 4 49 23 323 353 335 272 235 188 178 180 181 170 173 175 185 191 189 164 179 183 177 181 189 183 177 183 186 198 194 194 209 197 232 275 197
187 326 195 35 79 73 7 132 144 107 78 291 346 280 279 203 185 172 175 171 164 180 179 186 184 184 184 177 163 168 170 166 174 184 191 190 200 191 188 209 232 184 258 172
170 253 233 209 186 155 209 46 154 115 61 30 265 281 277 348 154 164 174 167 178 174 176 173 162 182 163 172 153 162 167 172 184 190 179 191 199 195 210 225 242 233 216 191
236 335 209 272 177 181 163 162 90 86 121 167 353 295 266 341 357 191 178 177 178 175 170 162 164 155 160 168 155 162 169 180 186 181 182 186 188 187 204 228 271 212 219 130
248 214 286 107 213 147 127 188 128 106 124 136 164 276 218 264 292 48 222 182 174 180 170 172 173 173 171 164 162 170 166 157 180 186 180 180 186 188 198 210 233 219 163 67
306 261 310 252 232 221 168 156 138 130 211 173 132 261 307 293 63 4 107 103 173 180 182 173 170 121 102 56 140 111 84 95 3 307 211 182 174 182 190 204 218 213 178 145
353 323 347 334 347 49 132 211 136 94 110 204 135 274 177 256 39 62 24 56 73 75 169 121 121 117 105 77 119 116 92 353 253 245 222 187 177 182 192 200 212 193 169 113
105 262 232 228 256 295 331 158 159 156 133 169 179 276 253 259 183 99 354 92 81 108 111 128 146 139 143 117 151 140 154 192 238 260 239 181 170 180 203 201 207 161 114 100
161 248 277 289 303 325 313 169 162 189 179 170 193 222 222 228 198 166 177 160 132 124 124 133 144 146 129 122 154 162 169 184 200 226 199 179 167 171 115 88 89 96 101 116
325 289 300 301 286 281 279 284 100 288 283 150 65 201 197 218 201 120 188 145 154 138 146 154 167 162 148 149 137 151 157 172 182 109 97 110 117 114 103 109 103 101 109 111
302 316 1 279 297 336 332 286 140 197 280 132 208 240 195 199 203 182 167 153 159 161 148 152 167 159 161 173 161 134 100 105 115 110 115 102 97 110 113 112 110 112 115 107
278 287 292 282 326 305 251 281 227 186 197 192 263 196 181 191 199 170 161 157 166 163 159 157 163 163 176 165 120 120 137 108 114 103 121 121 113 115 113 110 112 111 106 116
261 272 265 267 280 273 293 279 100 97 302 150 113 130 246 199 160 165 157 155 165 157 169 165 176 170 126 125 130 121 134 163 102 125 137 120 130 133 125 119 107 110 111 110
306 254 252 261 259 266 271 297 135 96 308 232 109 284 316 91 153 184 167 157 155 154 158 169 144 118 121 119 114 109 113 116 120 126 120 109 116 120 109 109 113 116 116 117
304 312 293 294 303 293 259 241 137 96 234 254 177 249 40 92 188 187 163 159 155 154 156 132 125 125 130 128 120 115 113 115 121 115 105 102 105 111 114 108 115 120 119 114
276 276 286 294 245 303 43 4 30 321 325 194 162 222 268 306 342 163 163 155 154 147 131 130 124 128 132 127 124 125 123 134 129 122 125 121 118 122 118 124 121 122 121 126
56 70 285 18 299 348 341 28 27 4 345 269 128 105 89 33 37 324 175 152 146 137 134 130 133 122 110 128 124 117 131 128 119 121 133 133 127 130 136 135 137 136 143 158
320 13 318 338 345 336 349 0 7 354 354 347 329 92 80 57 14 358 182 130 136 134 135 134 120 122 117 122 123 127 133 126 124 128 131 133 131 129 146 143 157 156 184 189
295 327 306 300 330 335 341 342 339 340 325 347 337 337 120 87 50 345 324 144 131 135 136 134 130 128 131 129 130 139 135 131 130 138 141 139 129 155 178 127 243 172 97 234
285 287 297 294 316 315 312 314 317 322 313 339 326 46 126 121 125 243 260 257 139 132 133 131 130 132 137 135 139 144 136 141 136 144 148 156 154 175 175 148 105 41 108 68